Location: Caoba
(9.7667°N, 67.4833°W)
Time: 00:38:46
(UTC+00:00)

ARIANE 6 FM1 Upper Stage - Visible Passes

Search period start: 22 January 2026 00:00
Search period end: 01 February 2026 00:00
Orbit: 522 x 610 km, 62.0° (Epoch: 21 January)

Date Brightness Start Highest point End Pass type
(mag) Time Alt. Az. Time Alt. Az. Time Alt. Az.
22 Jan 5.2 08:33:44 19° E 08:33:44 19° E 08:35:35 10° ESE visible
22 Jan 4.5 10:09:49 13° W 10:11:06 14° WSW 10:13:24 10° SSW visible
23 Jan 5.1 08:34:53 20° ESE 08:34:53 20° ESE 08:36:20 10° SE visible
24 Jan 5.4 08:35:57 15° SSE 08:35:57 15° SSE 08:36:41 10° SSE visible
